FW6530 Weather Reports


Display with metric or nautical units.
time (UTC)temp
F
wind
direction
speed
MPH
gust
MPH
rain 1hr
in
rain 24hr
in
rain mn
in
humidity
%
barometer
mb
20260504081541 50 0 1.0 3.0 0.00 0.00 0.00 63 1018.6
20260504081028 50 294 1.0 3.0 0.00 0.00 0.00 64 1018.7
20260504080525 50 294 1.0 3.0 0.00 0.00 0.00 64 1018.8
20260504050525 47 0 1.0 4.0 0.00 0.00 0.00 59 1019.5
20260504045527 49 0 0.0 0.0 0.00 0.00 0.00 55 1019.5
20260504045026 49 0 0.0 0.0 0.00 0.00 0.00 55 1019.5
20260504044536 50 0 0.0 0.0 0.00 0.00 0.00 53 1019.3
20260504044025 50 0 0.0 0.0 0.00 0.00 0.00 53 1019.3
20260504043531 51 0 0.0 3.0 0.00 0.00 0.00 53 1019.3
20260504043037 51 0 0.0 3.0 0.00 0.00 0.00 52 1019.2
20260504042525 51 74 1.0 3.0 0.00 0.00 0.00 51 1019.1
20260504042026 51 74 0.0 3.0 0.00 0.00 0.00 49 1019.1
20260504041535 51 74 1.0 3.0 0.00 0.00 0.00 47 1019.2
20260504041024 52 74 1.0 3.0 0.00 0.00 0.00 46 1019.1
20260504040528 52 0 0.0 2.0 0.00 0.00 0.00 44 1019.0
20260504040043 52 74 0.0 2.0 0.00 0.00 0.00 43 1019.0
20260504035528 52 0 1.0 2.0 0.00 0.00 0.00 42 1019.0
20260504035026 52 74 0.0 3.0 0.00 0.00 0.00 41 1019.0
20260504034552 52 0 1.0 3.0 0.00 0.00 0.00 40 1018.9
20260504034026 52 74 1.0 3.0 0.00 0.00 0.00 39 1018.9
20260504033523 53 76 0.0 4.0 0.00 0.00 0.00 39 1019.0
20260504033049 53 76 1.0 7.0 0.00 0.00 0.00 39 1018.9
20260504032525 52 81 1.0 7.0 0.00 0.00 0.00 39 1018.9
20260504032025 52 84 1.0 7.0 0.00 0.00 0.00 38 1018.9
20260504031540 53 0 0.0 2.0 0.00 0.00 0.00 36 1018.8
20260504031024 54 0 1.0 2.0 0.00 0.00 0.00 35 1018.7
20260504030523 55 92 0.0 2.0 0.00 0.00 0.00 34 1018.5
20260504030038 56 92 0.0 2.0 0.00 0.00 0.00 33 1018.6
20260504025524 57 92 0.0 2.0 0.00 0.00 0.00 32 1018.5
20260504025025 57 0 0.0 2.0 0.00 0.00 0.00 31 1018.4
20260504024546 58 0 0.0 4.0 0.00 0.00 0.00 30 1018.3
20260504024024 58 0 1.0 6.0 0.00 0.00 0.00 30 1018.3
20260504023524 58 92 1.0 6.0 0.00 0.00 0.00 29 1018.4
20260504023040 59 96 2.0 7.0 0.00 0.00 0.00 29 1018.2
20260504022528 59 83 2.0 8.0 0.00 0.00 0.00 29 1018.2
20260504022024 60 101 2.0 11.0 0.00 0.00 0.00 28 1018.0
20260504021538 60 84 5.0 11.0 0.00 0.00 0.00 28 1018.1
20260504021023 60 120 3.0 8.0 0.00 0.00 0.00 28 1018.1
20260504020525 60 107 3.0 8.0 0.00 0.00 0.00 27 1018.0
20260504020035 61 96 3.0 8.0 0.00 0.00 0.00 28 1018.0
20260504015525 61 107 3.0 10.0 0.00 0.00 0.00 27 1017.9
20260504015028 62 121 4.0 10.0 0.00 0.00 0.00 27 1017.9
20260504014538 62 109 3.0 10.0 0.00 0.00 0.00 27 1017.8
20260504014028 63 112 6.0 15.0 0.00 0.00 0.00 26 1017.7
20260504013524 63 94 7.0 15.0 0.00 0.00 0.00 26 1017.8
20260504013042 64 65 5.0 12.0 0.00 0.00 0.00 26 1017.8
20260504012524 64 75 5.0 12.0 0.00 0.00 0.00 25 1017.9
20260504012025 64 80 4.0 12.0 0.00 0.00 0.00 25 1017.8
20260504011541 65 74 6.0 12.0 0.00 0.00 0.00 25 1017.9
20260504011030 65 49 4.0 11.0 0.00 0.00 0.00 25 1017.9
20260504010526 65 50 7.0 13.0 0.00 0.00 0.00 24 1017.9
20260504010043 65 84 7.0 14.0 0.00 0.00 0.00 24 1018.0
20260504005525 66 74 7.0 14.0 0.00 0.00 0.00 24 1018.0
20260504005024 66 80 6.0 14.0 0.00 0.00 0.00 24 1018.0
20260504004540 66 78 6.0 14.0 0.00 0.00 0.00 24 1018.0
20260504004023 66 44 4.0 14.0 0.00 0.00 0.00 24 1018.0
20260504003525 67 62 4.0 14.0 0.00 0.00 0.00 24 1018.1
20260504003041 66 49 5.0 14.0 0.00 0.00 0.00 24 1018.1
20260504002527 66 69 5.0 14.0 0.00 0.00 0.00 24 1018.3
20260504002025 66 78 3.0 10.0 0.00 0.00 0.00 24 1018.2
20260504001536 67 86 6.0 11.0 0.00 0.00 0.00 23 1018.2
20260504001028 67 63 5.0 11.0 0.00 0.00 0.00 24 1018.2
20260504000524 67 74 5.0 12.0 0.00 0.00 0.00 23 1018.3
20260504000042 67 55 6.0 14.0 0.00 0.00 0.00 23 1018.3
20260503235522 67 64 5.0 14.0 0.00 0.00 0.00 23 1018.3
20260503235024 67 50 7.0 14.0 0.00 0.00 0.00 23 1018.3
20260503234541 67 101 5.0 16.0 0.00 0.00 0.00 23 1018.3
20260503234025 67 83 9.0 16.0 0.00 0.00 0.00 23 1018.4
20260503233528 67 62 6.0 13.0 0.00 0.00 0.00 23 1018.3
20260503233040 67 69 5.0 13.0 0.00 0.00 0.00 23 1018.4
20260503232527 67 86 8.0 15.0 0.00 0.00 0.00 23 1018.5
20260503232025 67 65 7.0 15.0 0.00 0.00 0.00 23 1018.5
20260503231535 67 45 4.0 14.0 0.00 0.00 0.00 24 1018.6
20260503231029 67 84 6.0 16.0 0.00 0.00 0.00 24 1018.7
20260503230525 67 75 4.0 17.0 0.00 0.00 0.00 23 1018.8
20260503230036 67 90 8.0 17.0 0.00 0.00 0.00 23 1019.0
20260503225524 68 65 9.0 17.0 0.00 0.00 0.00 24 1019.0
20260503225027 67 82 7.0 16.0 0.00 0.00 0.00 24 1019.0
20260503224535 67 78 9.0 17.0 0.00 0.00 0.00 23 1019.2
20260503224025 67 51 9.0 17.0 0.00 0.00 0.00 23 1019.3
20260503223525 68 98 6.0 16.0 0.00 0.00 0.00 23 1019.5
20260503223041 68 94 9.0 16.0 0.00 0.00 0.00 22 1019.4
20260503222526 68 82 4.0 15.0 0.00 0.00 0.00 22 1019.3
20260503222024 68 39 4.0 17.0 0.00 0.00 0.00 21 1019.5
20260503221540 67 85 4.0 17.0 0.00 0.00 0.00 22 1019.5
20260503221023 66 80 7.0 17.0 0.00 0.00 0.00 22 1019.6
20260503220524 67 34 9.0 17.0 0.00 0.00 0.00 22 1019.7
20260503220042 67 80 6.0 17.0 0.00 0.00 0.00 21 1019.6
20260503215527 67 84 5.0 17.0 0.00 0.00 0.00 21 1019.7
20260503215024 68 64 9.0 17.0 0.00 0.00 0.00 21 1019.8
20260503214536 68 90 7.0 17.0 0.00 0.00 0.00 20 1019.8
20260503214024 68 70 7.0 14.0 0.00 0.00 0.00 20 1019.8
20260503213525 68 101 5.0 14.0 0.00 0.00 0.00 20 1019.9
20260503213036 68 56 6.0 12.0 0.00 0.00 0.00 20 1020.0
20260503212525 68 65 6.0 12.0 0.00 0.00 0.00 19 1020.1
20260503212024 68 55 4.0 15.0 0.00 0.00 0.00 22 1020.2
20260503211541 67 69 7.0 15.0 0.00 0.00 0.00 22 1020.3
20260503211024 67 86 8.0 17.0 0.00 0.00 0.00 22 1020.4
20260503210524 67 46 9.0 17.0 0.00 0.00 0.00 22 1020.4
20260503210040 68 88 7.0 15.0 0.00 0.00 0.00 23 1020.4
20260503205525 67 90 6.0 12.0 0.00 0.00 0.00 24 1020.7
20260503205025 67 55 6.0 15.0 0.00 0.00 0.00 23 1020.7
20260503204538 67 78 9.0 17.0 0.00 0.00 0.00 23 1020.7
20260503204024 67 71 6.0 17.0 0.00 0.00 0.00 23 1020.9
20260503203525 67 51 8.0 13.0 0.00 0.00 0.00 24 1020.9
20260503203042 67 61 4.0 18.0 0.00 0.00 0.00 23 1021.0
20260503202524 67 76 10.0 18.0 0.00 0.00 0.00 24 1021.1
20260503202026 66 70 4.0 19.0 0.00 0.00 0.00 24 1021.2
20260503201541 66 92 5.0 19.0 0.00 0.00 0.00 24 1021.3
20260503201025 66 105 4.0 14.0 0.00 0.00 0.00 24 1021.4
20260503200527 65 68 6.0 15.0 0.00 0.00 0.00 25 1021.4
20260503200035 65 107 6.0 16.0 0.00 0.00 0.00 24 1021.5
20260503195526 65 68 8.0 16.0 0.00 0.00 0.00 25 1021.6
20260503195025 65 79 7.0 16.0 0.00 0.00 0.00 24 1021.6
20260503194536 65 88 9.0 15.0 0.00 0.00 0.00 24 1021.8
20260503194025 66 113 6.0 15.0 0.00 0.00 0.00 25 1021.9
20260503193527 66 81 8.0 15.0 0.00 0.00 0.00 25 1021.9
20260503193036 66 14 3.0 14.0 0.00 0.00 0.00 26 1022.0
20260503192524 66 45 6.0 14.0 0.00 0.00 0.00 25 1022.0
20260503192027 66 66 7.0 14.0 0.00 0.00 0.00 26 1022.1
20260503191538 66 73 6.0 12.0 0.00 0.00 0.00 28 1022.0
20260503191024 65 35 5.0 15.0 0.00 0.00 0.00 28 1022.2
20260503190525 64 48 7.0 16.0 0.00 0.00 0.00 29 1022.4
20260503190042 64 79 10.0 16.0 0.00 0.00 0.00 28 1022.5
20260503185524 63 88 7.0 15.0 0.00 0.00 0.00 28 1022.6
20260503185024 64 65 5.0 16.0 0.00 0.00 0.00 29 1022.7
20260503184557 64 110 8.0 16.0 0.00 0.00 0.00 29 1022.8
20260503184024 65 40 8.0 14.0 0.00 0.00 0.00 28 1023.0
20260503183523 65 86 4.0 10.0 0.00 0.00 0.00 28 1023.1
20260503183047 65 175 2.0 11.0 0.00 0.00 0.00 28 1023.1
20260503182523 65 194 4.0 12.0 0.00 0.00 0.00 28 1023.3
20260503182024 65 196 2.0 13.0 0.00 0.00 0.00 26 1023.4
20260503181543 64 184 5.0 13.0 0.00 0.00 0.00 25 1023.5
20260503181028 63 134 3.0 11.0 0.00 0.00 0.00 27 1023.5
20260503180525 63 80 5.0 11.0 0.00 0.00 0.00 31 1023.6
20260503180040 63 118 5.0 16.0 0.00 0.00 0.00 32 1023.6
20260503175524 62 151 4.0 16.0 0.00 0.00 0.00 32 1023.7
20260503175024 63 147 6.0 16.0 0.00 0.00 0.00 30 1023.7
20260503174538 63 182 1.0 12.0 0.00 0.00 0.00 33 1023.8
20260503174028 62 273 6.0 12.0 0.00 0.00 0.00 32 1023.8
20260503173524 62 171 4.0 14.0 0.00 0.00 0.00 31 1024.0
20260503173038 61 73 5.0 14.0 0.00 0.00 0.00 34 1024.0
20260503172524 61 179 7.0 14.0 0.00 0.00 0.00 33 1024.0
20260503172021 60 196 6.0 15.0 0.00 0.00 0.00 35 1024.0
20260503171554 60 163 6.0 15.0 0.00 0.00 0.00 33 1024.0
20260503171026 60 117 6.0 12.0 0.00 0.00 0.00 34 1024.1
20260503170524 60 165 7.0 12.0 0.00 0.00 0.00 35 1024.1
20260503150524 55 186 3.0 8.0 0.00 0.00 0.00 45 1025.0
20260503131025 42 269 2.0 4.0 0.00 0.00 0.00 76 1025.6
20260503130524 41 299 1.0 4.0 0.00 0.00 0.00 77 1025.6
20260503110525 40 285 2.0 4.0 0.00 0.00 0.00 75 1025.0